User: anonymous   Login
Location: Unspecified
(0.0000°N, 0.0000°E)
Time: 09:31:52
(UTC+01:00)
Language:

Landsat 4 - Orbit

View from above orbital plane
View from above orbital plane
View from above satellite
View from above satellite

Ground track
Ground track

The orbit data is extracted from the following two-line orbital elements,

1 13367U 82072A   14298.74719064  .00007180  00000-0  43266-3 0  7764
2 13367 098.1968 011.1343 0013835 237.2722 280.4715 15.11049450738927
Epoch (UTC): 25 October 2014 17:55:57
Eccentricity: 0.0013835
inclination: 98.1968°
perigee height: 523 km
apogee height: 542 km
right ascension of ascending node: 11.1343°
argument of perigee: 237.2722°
revolutions per day: 15.11049450
mean anomaly at epoch: 280.4715°
orbit number at epoch: 73892

The dashed part of the orbit path shows where the satellite is in the earth's shadow,  

DLR